Weather History for Driggs, ID

Change the Weather History Date:

Wednesday, September 18, 2013

  Actual Average (KRXE) Record (KRXE)
Temperature  
Mean Temperature 45 °F 55 °F  
Max Temperature 52 °F 70 °F 83 °F (2009)
Min Temperature 37 °F 39 °F 25 °F (2003)
Degree Days  
Heating Degree Days 20 10  
Month to date heating degree days 131  
Since 1 July heating degree days 204  
Cooling Degree Days 0 0  
Month to date cooling degree days 5  
Year to date cooling degree days 207  
Moisture  
Dew Point 38 °F    
Average Humidity 77    
Maximum Humidity 93    
Minimum Humidity 47    
Precipitation  
Precipitation 0.05 in 0.03 in 0.50 in (1989)
Month to date precipitation 0.52  
Year to date precipitation 9.44  
Sea Level Pressure  
Sea Level Pressure 29.91 in    
Wind  
Wind Speed 11 mph (SSE)    
Max Wind Speed 20 mph    
Max Gust Speed 28 mph    
Visibility 10 miles    
Events Rain , Thunderstorm    
T = Trace of Precipitation, MM = Missing Value Source: NWS Daily Summary

Daily Weather History Graph

Daily Weather History Graph

Search for Another Location

Airport:

Trip Planner

Search our weather history database for the weather conditions in past years. The results will help you decide how hot, cold, wet, or windy it might be!

Date:

Astronomy

Sep. 18, 2013 Rise Set
Actual Time 7:07 AM MDT 7:28 PM MDT
Civil Twilight 6:38 AM MDT 7:57 PM MDT
Nautical Twilight 6:04 AM MDT 8:31 PM MDT
Astronomical Twilight 5:29 AM MDT 9:05 PM MDT
Moon 6:53 PM MDT (9/18) 6:13 AM MDT (9/18)
Length of Visible Light 13h 18m
Length of Day
12h 21m
Waxing Gibbous, 99% of the Moon is Illuminated
Sep 18
Waxing Gibbous
Sep 19
Full
Sep 26
Last Quarter
Oct 4
New
Oct 11
First Quarter

Hourly Weather History & Observations

Time (MDT) Temp. Windchill Dew Point Humidity Pressure Visibility Wind Dir Wind Speed Gust Speed Precip Events Conditions
12:56 AM 50.9 °F - 45.9 °F 83% 29.61 in 10.0 mi SSE 8.1 mph - N/A   Overcast
1:56 AM 50.9 °F - 45.9 °F 83% 29.61 in 10.0 mi South 6.9 mph - N/A   Overcast
2:56 AM 52.9 °F - 45.9 °F 77% 29.65 in 10.0 mi NNW 3.5 mph - N/A   Mostly Cloudy
3:56 AM 52.9 °F - 41.9 °F 66% 29.68 in 10.0 mi NW 10.4 mph 19.6 mph 0.00 in Rain Light Rain
4:48 AM 44.6 °F 40.2 °F 42.8 °F 93% 29.98 in 6.0 mi South 8.1 mph - 0.01 in Rain , Thunderstorm Light Thunderstorms and Rain
4:56 AM 45.0 °F 38.9 °F 41.9 °F 89% 29.74 in 10.0 mi SE 12.7 mph - 0.01 in Rain , Thunderstorm Light Thunderstorms and Rain
5:03 AM 44.6 °F 37.2 °F 42.8 °F 93% 29.96 in 10.0 mi SSE 17.3 mph 21.9 mph 0.00 in   Mostly Cloudy
5:56 AM 45.9 °F 39.7 °F 39.9 °F 80% 29.74 in 5.0 mi SE 13.8 mph - 0.01 in Rain Light Rain
6:56 AM 45.0 °F 37.4 °F 39.9 °F 82% 29.77 in 10.0 mi SSE 18.4 mph 25.3 mph 0.03 in Rain Light Rain
7:56 AM 45.0 °F 39.7 °F 38.8 °F 79% 29.81 in 10.0 mi South 10.4 mph - 0.00 in   Partly Cloudy
8:56 AM 46.9 °F - 36.9 °F 68% 29.81 in 10.0 mi South 19.6 mph 27.6 mph N/A   Clear
9:56 AM 45.9 °F 38.5 °F 36.9 °F 71% 29.83 in 10.0 mi South 18.4 mph - N/A   Scattered Clouds
10:56 AM 46.9 °F - 36.9 °F 68% 29.85 in 10.0 mi South 16.1 mph - N/A   Overcast
11:08 AM 46.4 °F 39.5 °F 37.4 °F 71% 30.01 in 10.0 mi South 17.3 mph 21.9 mph N/A   Overcast
11:31 AM 46.4 °F 39.2 °F 37.4 °F 71% 30.01 in 10.0 mi South 18.4 mph 21.9 mph N/A   Mostly Cloudy
11:56 AM 48.9 °F - 36.9 °F 63% 29.84 in 10.0 mi South 16.1 mph 21.9 mph N/A   Mostly Cloudy
12:56 PM 50.9 °F - 36.0 °F 57% 29.86 in 10.0 mi SW 9.2 mph - N/A   Mostly Cloudy
1:56 PM 48.9 °F - 36.9 °F 63% 29.88 in 10.0 mi WSW 12.7 mph - N/A   Overcast
2:56 PM 50.9 °F - 34.9 °F 54% 29.87 in 10.0 mi WSW 10.4 mph - N/A   Mostly Cloudy
3:56 PM 52.0 °F - 32.9 °F 48% 29.87 in 10.0 mi SSW 10.4 mph 17.3 mph N/A   Mostly Cloudy
4:56 PM 52.0 °F - 32.0 °F 47% 29.91 in 10.0 mi SW 9.2 mph - N/A   Scattered Clouds
5:28 PM 44.6 °F 36.9 °F 37.4 °F 76% 30.08 in 10.0 mi North 18.4 mph - N/A   Mostly Cloudy
5:56 PM 43.9 °F 37.5 °F 36.0 °F 74% 29.98 in 10.0 mi North 12.7 mph - N/A   Mostly Cloudy
6:56 PM 43.0 °F 38.8 °F 36.9 °F 79% 29.99 in 10.0 mi NE 6.9 mph - 0.00 in   Partly Cloudy
7:56 PM 41.9 °F 39.0 °F 37.9 °F 86% 30.01 in 10.0 mi South 4.6 mph - N/A   Mostly Cloudy
8:35 PM 39.2 °F 31.2 °F 35.6 °F 87% 30.14 in 10.0 mi NE 13.8 mph - N/A   Mostly Cloudy
8:56 PM 38.8 °F 31.2 °F 36.0 °F 89% 30.05 in 10.0 mi ENE 12.7 mph - N/A   Mostly Cloudy
9:35 PM 39.2 °F 31.2 °F 37.4 °F 93% 30.15 in 5.0 mi NE 13.8 mph - 0.00 in Rain Light Rain
9:44 PM 39.2 °F 32.0 °F 37.4 °F 93% 30.16 in 9.0 mi NE 11.5 mph - 0.00 in Rain Light Rain
9:56 PM 39.9 °F 33.9 °F 36.9 °F 89% 30.06 in 10.0 mi East 9.2 mph - 0.00 in   Mostly Cloudy
10:56 PM 39.9 °F 37.8 °F 36.9 °F 89% 30.06 in 10.0 mi South 3.5 mph - N/A   Overcast
11:56 PM 37.9 °F 35.5 °F 36.0 °F 93% 30.07 in 10.0 mi East 3.5 mph - N/A   Mostly Cloudy